STARLINK-4415, 53465

Orbit data source: Space-Track

STARLINK-4415, 53465 is a payload satellite owned by SpaceX/Seattle (US) in SSO that was launched on Fri, 12 Aug 2022 UTC via an FALCON 9 launch vehicle from the Air Force Western Test Range (AFWTR). Payload-class satellites include a variety of spacecraft equipped with specific instruments for various scientific and technological missions. These include communications satellites like Starlink; space stations such as the ISS; scientific satellites like the Hubble; Earth observation satellites from companies like Planet Labs, Umbra, and HawkEye 360; GPS; miniature CubeSats for education and research; and military/defense satellites.

Loading next visibility...
Identifier
53465, 2022-099A
Orbit
SSO
Country
Flag of USUS
Related business
Manufacturer
SpaceX/Seattle
Mission
Operational Commercial Communications
Bus & Motor
STARLINK, Unknown motor
Mass
300 kg wet, ~275 kg dry
Launch date (UTC)
2022-08-12 (3 years ago)
Launch vehicle
FALCON 9
Launch site
Air Force Western Test Range (AFWTR)
Object type
Payload
Rocket body
Debris
Shape & HBR
Box + 1 Pan, 10.1 m
Radar Cross Section
13.562 m², Large (>1 m²)

Expand to show TLE details & history
Last TLE update: 7 hours ago

TLE from 7 hours ago
0 STARLINK-4415
1 53465U 22099A   25308.61422742 -.00000564  00000-0 -34880-4 0  9995
2 53465  97.6045  67.9297 0001239  93.8798 266.2570 15.05644034177213
Epoch: 2025-11-04T14:44Z
TLE epoch observation values (Epoch: 2025-11-04T14:44:29.249Z)
Latitude
-0.00004°
Longitude
162.70911°
Altitude
552.651 km
Speed
7.585 km/s
True Right ascension
04h 31m 43s
True Declination
0° 00' 00"
Sunlit
Object was in full shadow at epoch
Visualization orbit readout
Latitude
Unknown
Longitude
Unknown
Altitude
Unknown
Speed
Unknown
Apparent Right ascension
Unknown
Apparent Declination
Unknown
Sunlit
N/A
Visualization observer readout
Local Sidereal Time
17:17:52
Azimuth
Unknown
Elevation
Unknown
Doppler factor
Unknown
Orbital elements
Apogee altitude
547.381 km
Perigee altitude
545.665 km
Semi-major axis
6,924.66 km
Eccentricity
0.00012
Inclination
97.6045°
RAAN
67.9297°
Arg. of periapsis
93.8798°
True anomaly
266.24283°
Mean anomaly
266.257°
Eccentric anomaly
266.24992°
Mean motion
3.76657 °/min
Orbital period
95.58 mins
BSTAR
-0.00003488
Loading maneuver chart data...
Computing Atmospheric mass density...
Loading historical data...
Loading historical data...
Loading historical data...
Loading historical data...
Loading historical data...
Loading historical data...
Loading historical data...

Documentation

Showing up to 5 results
|